Litchfield, MN

9:39 AM CST on February 21, 2018 (GMT -0600)
Litchfield Municipal

Weather History for KLJF - September, 2014

Change the Weather History Date:

Friday, September 12, 2014

  Actual Average Record
Temperature  
Mean Temperature 48 °F -  
Max Temperature 53 °F 74 °F 91 °F (1976)
Min Temperature 41 °F 51 °F 35 °F (1964)
Degree Days  
Heating Degree Days 18    
Moisture  
Dew Point 41 °F    
Average Humidity 81    
Maximum Humidity 93    
Minimum Humidity 51    
Precipitation  
Precipitation 0.01 in - - ()
Sea Level Pressure  
Sea Level Pressure 30.41 in    
Wind  
Wind Speed 4 mph (NW)    
Max Wind Speed 14 mph    
Max Gust Speed 20 mph    
Visibility 10 miles    
Events Rain    
Averages and records for this station are not official NWS values.
T = Trace of Precipitation, MM = Missing Value Source: NWS Daily Summary

Daily Weather History Graph

Daily Weather History Graph

Search for Another Location

Airport or City:

Trip Planner

Search our weather history database for the weather conditions in past years. The results will help you decide how hot, cold, wet, or windy it might be!

Date:

Astronomy

Sep. 12, 2014 Rise Set
Actual Time 6:53 AM CDT 7:34 PM CDT
Civil Twilight 6:23 AM CDT 8:04 PM CDT
Nautical Twilight 5:48 AM CDT 8:39 PM CDT
Astronomical Twilight 5:11 AM CDT 9:15 PM CDT
Moon 9:43 PM CDT (9/12) 11:09 AM CDT (9/12)
Length of Visible Light 13h 40m
Length of Day
12h 41m
Waning Gibbous, 83% of the Moon is Illuminated
Sep 12
Waning Gibbous
Sep 15
Last Quarter
Sep 24
New
Oct 1
First Quarter
Oct 8
Full

Hourly Weather History & Observations

Time (CDT) Temp. Windchill Dew Point Humidity Pressure Visibility Wind Dir Wind Speed Gust Speed Precip Events Conditions
12:13 AM 44.6 °F 43.1 °F 42.8 °F 93% 30.40 in 10.0 mi NNW 3.5 mph - N/A   Unknown
12:33 AM 44.6 °F - 42.8 °F 93% 30.40 in 10.0 mi Calm Calm - N/A   Unknown
12:52 AM 44.6 °F - 42.8 °F 93% 30.40 in 10.0 mi Calm Calm - N/A   Unknown
1:13 AM 44.6 °F 43.1 °F 42.8 °F 93% 30.40 in 10.0 mi NNW 3.5 mph - N/A   Unknown
1:33 AM 44.6 °F 43.1 °F 42.8 °F 93% 30.40 in 10.0 mi NNW 3.5 mph - N/A   Unknown
1:52 AM 44.6 °F - 42.8 °F 93% 30.41 in 10.0 mi Calm Calm - N/A   Unknown
2:13 AM 44.6 °F - 42.8 °F 93% 30.42 in 10.0 mi Calm Calm - N/A   Unknown
2:33 AM 44.6 °F - 42.8 °F 93% 30.42 in 10.0 mi Calm Calm - N/A   Unknown
2:52 AM 44.6 °F - 41.0 °F 87% 30.43 in 10.0 mi Calm Calm - N/A   Unknown
3:13 AM 44.6 °F - 41.0 °F 87% 30.43 in 10.0 mi Calm Calm - N/A   Unknown
3:33 AM 44.6 °F 43.1 °F 41.0 °F 87% 30.42 in 10.0 mi NW 3.5 mph - N/A   Unknown
4:13 AM 44.6 °F - 41.0 °F 87% 30.43 in 10.0 mi Calm Calm - N/A   Unknown
4:32 AM 44.6 °F 43.1 °F 41.0 °F 87% 30.44 in 10.0 mi WNW 3.5 mph - N/A   Unknown
4:53 AM 44.6 °F 43.1 °F 41.0 °F 87% 30.44 in 10.0 mi NW 3.5 mph - N/A   Unknown
5:13 AM 42.8 °F 40.1 °F 41.0 °F 93% 30.44 in 10.0 mi NNW 4.6 mph - N/A   Unknown
5:32 AM 42.8 °F 39.3 °F 41.0 °F 93% 30.44 in 10.0 mi NNW 5.8 mph - N/A   Unknown
5:53 AM 42.8 °F 38.6 °F 41.0 °F 93% 30.45 in 10.0 mi NNW 6.9 mph - N/A   Unknown
6:12 AM 42.8 °F 38.6 °F 41.0 °F 93% 30.45 in 10.0 mi NNW 6.9 mph - N/A   Unknown
6:33 AM 42.8 °F 40.1 °F 41.0 °F 93% 30.46 in 10.0 mi NW 4.6 mph - N/A   Unknown
6:53 AM 42.8 °F 40.1 °F 41.0 °F 93% 30.45 in 10.0 mi NNW 4.6 mph - N/A   Unknown
7:12 AM 42.8 °F 40.1 °F 41.0 °F 93% 30.45 in 10.0 mi NNW 4.6 mph - N/A   Unknown
7:33 AM 44.6 °F 41.4 °F 41.0 °F 87% 30.45 in 10.0 mi NNW 5.8 mph - N/A   Unknown
7:53 AM 44.6 °F 40.7 °F 42.8 °F 93% 30.46 in 10.0 mi NNW 6.9 mph - N/A   Unknown
8:12 AM 44.6 °F 40.7 °F 42.8 °F 93% 30.46 in 10.0 mi North 6.9 mph - N/A   Unknown
8:33 AM 44.6 °F 40.7 °F 42.8 °F 93% 30.45 in 10.0 mi NNW 6.9 mph - N/A   Unknown
8:53 AM 46.4 °F 42.9 °F 42.8 °F 87% 30.45 in 10.0 mi North 6.9 mph - N/A   Unknown
9:12 AM 46.4 °F - 42.8 °F 87% 30.45 in 10.0 mi Calm Calm - N/A   Unknown
9:33 AM 48.2 °F - 44.6 °F 87% 30.45 in 10.0 mi NNE 4.6 mph - N/A   Unknown
9:53 AM 48.2 °F - 42.8 °F 82% 30.46 in 10.0 mi NNW 6.9 mph - N/A   Unknown
10:12 AM 48.2 °F - 44.6 °F 87% 30.46 in 10.0 mi North 4.6 mph - N/A   Unknown
10:33 AM 50.0 °F - 41.0 °F 71% 30.46 in 10.0 mi NNE 4.6 mph - N/A   Unknown
10:53 AM 50.0 °F - 39.2 °F 66% 30.46 in 10.0 mi North 5.8 mph - N/A   Unknown
11:12 AM 51.8 °F - 41.0 °F 67% 30.45 in 10.0 mi NNW 5.8 mph - N/A   Unknown
11:33 AM 53.6 °F - 39.2 °F 58% 30.45 in 10.0 mi North 4.6 mph - N/A   Unknown
11:53 AM 51.8 °F - 39.2 °F 62% 30.45 in 10.0 mi North 6.9 mph - N/A   Overcast
12:12 PM 51.8 °F - 39.2 °F 62% 30.44 in 10.0 mi North 6.9 mph - N/A   Unknown
12:33 PM 53.6 °F - 37.4 °F 54% 30.44 in 10.0 mi North 9.2 mph - N/A   Mostly Cloudy
12:53 PM 53.6 °F - 37.4 °F 54% 30.43 in 10.0 mi NNW 6.9 mph - N/A   Mostly Cloudy
1:12 PM 51.8 °F - 35.6 °F 54% 30.42 in 10.0 mi North 6.9 mph - N/A   Mostly Cloudy
1:33 PM 53.6 °F - 35.6 °F 51% 30.42 in 10.0 mi NNW 8.1 mph - N/A   Mostly Cloudy
1:52 PM 53.6 °F - 35.6 °F 51% 30.42 in 10.0 mi NNW 6.9 mph - N/A   Mostly Cloudy
2:13 PM 51.8 °F - 37.4 °F 58% 30.41 in 10.0 mi West 6.9 mph - N/A   Unknown
2:32 PM 51.8 °F - 39.2 °F 62% 30.41 in 10.0 mi West 5.8 mph - N/A   Unknown
2:53 PM 51.8 °F - 37.4 °F 58% 30.40 in 10.0 mi West 5.8 mph - N/A   Overcast
3:13 PM 50.0 °F - 39.2 °F 66% 30.41 in 10.0 mi NW 13.8 mph 19.6 mph N/A Rain Light Rain
3:32 PM 46.4 °F - 39.2 °F 76% 30.40 in 7.0 mi Calm Calm - 0.01 in Rain Light Rain
3:53 PM 46.4 °F 45.2 °F 42.8 °F 87% 30.40 in 10.0 mi West 3.5 mph - N/A   Unknown
4:13 PM 48.2 °F - 42.8 °F 82% 30.40 in 10.0 mi WSW 5.8 mph - N/A   Unknown
4:32 PM 48.2 °F - 42.8 °F 82% 30.39 in 10.0 mi WSW 3.5 mph - N/A   Unknown
4:53 PM 48.2 °F - 42.8 °F 82% 30.38 in 10.0 mi WSW 3.5 mph - N/A   Unknown
5:13 PM 50.0 °F - 44.6 °F 82% 30.38 in 10.0 mi WSW 4.6 mph - N/A   Unknown
5:32 PM 51.8 °F - 44.6 °F 76% 30.38 in 10.0 mi West 3.5 mph - N/A   Unknown
5:53 PM 51.8 °F - 41.0 °F 67% 30.38 in 10.0 mi NW 6.9 mph - N/A   Unknown
6:13 PM 50.0 °F - 39.2 °F 66% 30.38 in 10.0 mi NW 6.9 mph - N/A   Unknown
6:32 PM 48.2 °F - 41.0 °F 76% 30.38 in 10.0 mi WNW 5.8 mph - N/A   Unknown
6:53 PM 48.2 °F - 41.0 °F 76% 30.37 in 10.0 mi NW 3.5 mph - N/A   Unknown
7:13 PM 48.2 °F - 41.0 °F 76% 30.37 in 10.0 mi NW 3.5 mph - N/A   Unknown
7:32 PM 48.2 °F - 42.8 °F 82% 30.37 in 10.0 mi WNW 3.5 mph - N/A   Unknown
7:53 PM 48.2 °F - 42.8 °F 82% 30.36 in 10.0 mi WNW 3.5 mph - N/A   Unknown
8:13 PM 46.4 °F - 42.8 °F 87% 30.37 in 10.0 mi Calm Calm - N/A   Unknown
8:32 PM 46.4 °F - 42.8 °F 87% 30.37 in 10.0 mi Calm Calm - N/A   Unknown
8:53 PM 46.4 °F - 42.8 °F 87% 30.38 in 10.0 mi Calm Calm - N/A   Unknown
9:12 PM 44.6 °F - 42.8 °F 93% 30.38 in 10.0 mi Calm Calm - N/A   Unknown
9:33 PM 44.6 °F 43.1 °F 42.8 °F 93% 30.38 in 10.0 mi WSW 3.5 mph - N/A   Unknown
9:53 PM 44.6 °F - 42.8 °F 93% 30.37 in 10.0 mi Calm Calm - N/A   Unknown
10:13 PM 42.8 °F 41.1 °F 41.0 °F 93% 30.37 in 10.0 mi West 3.5 mph - N/A   Unknown
10:32 PM 42.8 °F 41.1 °F 41.0 °F 93% 30.37 in 10.0 mi West 3.5 mph - N/A   Unknown
10:53 PM 42.8 °F 41.1 °F 41.0 °F 93% 30.37 in 10.0 mi WSW 3.5 mph - N/A   Unknown
11:12 PM 42.8 °F 41.1 °F 39.2 °F 87% 30.37 in 10.0 mi WSW 3.5 mph - N/A   Unknown
11:33 PM 42.8 °F 41.1 °F 39.2 °F 87% 30.37 in 10.0 mi WSW 3.5 mph - N/A   Unknown
11:52 PM 41.0 °F 39.0 °F 39.2 °F 93% 30.36 in 10.0 mi WSW 3.5 mph - N/A   Unknown